Regional Weather Roundup
Issued by NWS Albany, NY

Home | Current Version | Previous Version | Graphics & Text | Print | Product List | Glossary Off
Versions: 1 2 3 4 5 6 7 8 9 10 11 12 13 14 15 16 17 18 19 20 21 22 23 24 25 26 27

000
ASUS41 KALY 292210
RWRALY

NEW YORK STATE HOURLY WEATHER ROUNDUP
NATIONAL WEATHER SERVICE ALBANY NY
600 PM EDT SUN MAY 29 2016

NOTE: "FAIR" INDICATES FEW OR NO CLOUDS BELOW 12,000 FEET WITH NO
SIGNIFICANT WEATHER AND/OR NO OBSTRUCTIONS TO VISIBILITY.

NYZ032-033-038>043-046>054-057>066-NYZ062>081-082-084-292300-
EAST


CITY           SKY/WX    TMP DP  RH WIND       PRES   REMARKS
ALBANY         CLOUDY    76  68  76 N7        30.01F THUNDER
GLENS FALLS    PTSUNNY   74  69  85 SE6       30.01F
POUGHKEEPSIE   PTSUNNY   85  62  46 SE9       30.01F
NEWBURGH       MOSUNNY   81  63  54 S9G16     30.05F
MONTGOMERY     MOSUNNY   84  65  52 S14       30.02F
WHITE PLAINS   SUNNY     77  65  66 S12G18    30.08S
ISLIP          FOG       70  67  90 S8        30.10F VSB 1/4
NEW YORK CITY  PTSUNNY   76  71  85 S20       30.06F
CENTRAL PARK   SUNNY     76  64  66 S9G22     30.09F
$$

NYZ005>009-017-018-044>046-055-056-292300-
CENTRAL


CITY           SKY/WX    TMP DP  RH WIND       PRES   REMARKS
FULTON         LGT RAIN  72  66  81 NE8       29.95F
SYRACUSE       CLOUDY    68  64  87 SE14      29.98F
ROME           TSTM      69  68  96 SW22G38   30.08R VSB 1/2
ELMIRA         LGT RAIN  72  66  81 NE9       30.02
BINGHAMTON     CLOUDY    76  60  57 NW13      30.05S
MONTICELLO     PTSUNNY   82  63  51 S13       30.08F
$$

NYZ026>034-041>043-087-292300-
NORTH


CITY           SKY/WX    TMP DP  RH WIND       PRES   REMARKS
WATERTOWN      CLOUDY    77  67  71 W9        29.97S
FORT DRUM      NOT AVBL
MASSENA        CLOUDY    80  64  58 S13       29.94F THUNDER
SARANAC LAKE   LGT RAIN  67  63  87 NE3       30.05F
PLATTSBURGH    TSTM      71  69  93 W5        30.01F FOG
$$

NYZ001>004-010>016-019>021-085-292300-
WEST


CITY           SKY/WX    TMP DP  RH WIND       PRES   REMARKS
NIAGARA FALLS  CLOUDY    81  63  54 SW10      29.97F
BUFFALO        CLOUDY    76  64  66 S12       30.00R
DUNKIRK        CLOUDY    75  64  68 SW5       30.01F
WELLSVILLE     CLOUDY    75  68  78 S3        30.10S
ROCHESTER      TSTM      73  68  84 CALM      30.00R
PENN YAN       CLOUDY    70  66  87 SW7       30.02F
$$

             KEY
       WCI = WIND CHILL INDEX
       VSB = VISIBILITY
       HX  = HEAT INDEX
$$




USA.gov is the U.S. government's official web portal to all federal, state and local government web resources and services.